Погода в Платовке

Россия / Оренбургская область     51°58′34″N   53°54′27″E
темп.,
°C
ветер,
м/с
пор.,
м/с
влажн.,
%
обл.,
%
осадки,
мм/ч
давл.,
гПа
погр.,
м
19 апреля, пн
пн1923:00+11св51151100 1.5 1017304
02:00+8св6116778 0.0 1017306
05:00+8в9157477 0.0 1018573
08:00+5в91366100 0.0 1020572
11:00+5вюв101263100 0.1 1022734
14:00+4вюв91260100 0.1 1023827
17:00+3вюв91254100 0.1 1024861
20:00+4вюв8135499 0.0 1025953
20 апреля, вт
вт2023:00+4в81347100 0.0 1026864
02:00+2в81447100 0.0 1027804
05:000в81451100 0.0 1029655
08:000в814495 0.0 1030710
11:00+3вюв910360 0.0 10311016
14:00+7вюв810290 0.0 10301276
17:00+8вюв89285 0.0 10291367
20:00+6вюв61138100 0.0 1029437
21 апреля, ср
ср2123:00+3вюв6134799 0.0 1029462
02:00+1юв61459100 0.0 1030415
05:000юв61556100 0.0 1031409
08:00+1юв81450100 0.0 1030546
11:00+5юв91236100 0.0 1030752
14:00+9юв91131100 0.0 10281060
17:00+11ююв81132100 0.0 10281337
20:00+8ююв4946100 0.0 1028386
22 апреля, чт
чт2223:00+7ююв51152100 0.1 1028513
02:00+6юв71264100 0.1 1029699
05:00+5юв51172100 0.2 1029488
08:00+5юв61265100 0.1 1029487
11:00+5юв61267100 0.6 1030573
14:00+5юв51174100 0.3 1030550
17:00+7ю81066100 0.6 1030950
20:00+5ююв51086100 4.4 1031768
23 апреля, пт
пт2323:00+5юв5988100 5.9 1030737
02:00+5вюв6992100 4.1 1029560
05:00+5в51087100 4.2 1028318
08:00+6вюв4882100 0.1 1027288
11:00+9вюв4769100 0.1 1025557
14:00+14ююв6742100 0.0 10231103
17:00+13юв4751100 0.0 1023472
20:00+7юв2588100 2.3 1025314